Regional Weather Roundup
Issued by NWS

Home | Current Version | Previous Version | Text Only | Print | Product List | Glossary Off
Versions: 1 2 3 4 5 6 7 8 9 10 11 12 13 14 15 16 17 18 19 20 21 22 23 24 25 26 27 28 29 30 31 32 33 34 35 36 37 38 39 40 41 42 43 44 45 46 47 48 49 50

000
ASUS43 KMPX 251901
RWRMN
WEATHER ROUNDUP FOR MINNESOTA
NATIONAL WEATHER SERVICE TWIN CITIES/CHANHASSEN MN
200 PM CDT SAT APR 25 2015


NOTE: "FAIR" INDICATES FEW OR NO CLOUDS BELOW 12,000 FEET WITH NO
SIGNIFICANT WEATHER AND/OR OBSTRUCTIONS TO VISIBILITY. N/A MEANS
CURRENT SKY AND/OR WEATHER CONDITIONS ARE NOT AVAILABLE.

MNZ060>063-068>070-252000-
   Twin Cities Metro

CITY           SKY/WX    TMP DP  RH WIND       PRES   REMARKS
TWIN CITIES    MOSUNNY   57  36  45 E12G23    29.83F
ST PAUL        MOSUNNY   58  35  42 NE15G21   29.85F
CRYSTAL        SUNNY     58  34  40 E8G20     29.84S
BLAINE         MOSUNNY   59  34  38 NE12G21   29.84F
LAKEVILLE      PTSUNNY   54  39  58 NE15G21   29.82F
EDEN PRAIRIE   SUNNY     58  37  45 E13       29.82S
SOUTH ST PAUL  MOSUNNY   58  34  40 E10G17    29.84S
LAKE ELMO      FAIR      59  32  36 E17       29.85S
$$
MNZ001>005-007-008-013>017-022>024-027-028-252000-
   Northwest Minnesota

CITY           SKY/WX    TMP DP  RH WIND       PRES   REMARKS
BEMIDJI        SUNNY     54  31  42 E14G20    29.92F
HALLOCK        SUNNY     63  30  29 SE15G29   29.89F
ROSEAU         SUNNY     57  30  35 NE17      29.92F
WARROAD        SUNNY     50  30  46 NE15      29.95F
THIEF RVR FALL MOSUNNY   57  34  41 E10G17    29.90F
CROOKSTON      SUNNY     61  37  41 SE14        N/A
FOSSTON        SUNNY     61  36  39 SE7G17    29.90S
DETROIT LAKES  SUNNY     55  36  47 SE14G21   29.89S
MOORHEAD       PTSUNNY   52  37  58 SE6       29.89F
PARK RAPIDS    SUNNY     57  30  35 SE14G22   29.89F
MAHNOMEN       CLOUDY    56  35  45 SE15      29.88F
$$
MNZ006-009>011-018-025>026-252000-
   North Central Minnesota

CITY           SKY/WX    TMP DP  RH WIND       PRES   REMARKS
BAUDETTE       SUNNY     59  28  30 E17       29.95S
FLAG ISLAND    SUNNY     52  27  37 SE7       29.96F
INTL FALLS     SUNNY     54  25  32 E13G21    29.97F
WASKISH        SUNNY     59  32  36 CALM      29.93
BIG FORK       SUNNY     57  28  33 E8        29.94F
LONGVILLE      SUNNY     55  28  35 SE9       29.92F
GRAND RAPIDS   PTSUNNY   50  27  40 E12G18    29.95S
CRANE LAKE     CLOUDY    52  18  25 N9        29.99F
ORR            SUNNY     57  18  21 CALM      29.93F
COOK           SUNNY     54  25  32 E5        29.96S
WALKER         FAIR      51  31  47 NE8       29.92F
$$
MNZ012-019>021-037-252000-
   Northeast Minnesota

CITY           SKY/WX    TMP DP  RH WIND       PRES   REMARKS
DULUTH         MOSUNNY   49  28  44 E20G25    29.96S
ELY            PTSUNNY   52  18  25 NE9       29.95F
HIBBING        MOSUNNY   53  22  29 VRB7      29.95F
EVELETH        SUNNY     54  23  30 NE3       29.95F
DULUTH HARBOR  SUNNY     37  32  81 NE24      30.00S
TWO HARBORS    SUNNY     48  28  46 E20       29.97F
SILVER BAY     SUNNY     45  16  31 NE14      30.00S
GRAND MARAIS     N/A     40  29  64 NE8       30.04S
G MARAIS ARPRT SUNNY     45  14  29 S10G16    29.99F
$$
MNZ029>031-032-039>041-046>048-054>057-064-252000-
   West Central Minnesota

CITY           SKY/WX    TMP DP  RH WIND       PRES   REMARKS
FERGUS FALLS   CLOUDY    52  36  54 E8        29.89F
WHEATON        PTSUNNY   45  39  81 E10       29.89S
MORRIS         MOSUNNY   52  43  71 E14       29.86S
ALEXANDRIA     CLOUDY    53  39  59 E15       29.87F
ELBOW LAKE     CLOUDY    48  39  70 E14       29.87F
WADENA         SUNNY     54  36  50 SE15      29.87F
GLENWOOD       MOSUNNY   54  43  66 E14       29.87S
APPLETON       SUNNY     54  43  66 E12       29.85S
BENSON         PTSUNNY   54  39  58 E12G17    29.85S
ORTONVILLE     CLOUDY    46  39  76 E10       29.86R
MADISON        PTSUNNY   52  43  71 E10       29.84F
WILLMAR        FAIR      54  43  66 NE16G22   29.85F
$$
MNZ033>034-036-042>043-049>051-058-059-252000-
   Central Minnesota

CITY           SKY/WX    TMP DP  RH WIND       PRES   REMARKS
ST CLOUD       PTSUNNY   54  37  52 E13G18    29.86F
SAUK CENTRE    MOCLDY    53  39  59 E16       29.87S
PAYNESVILLE    PTSUNNY   51  38  62 NE9       29.86S
AITKIN         MOSUNNY   55  28  35 E12G18    29.90F
PINE RIVER     SUNNY     52  32  46 E15G24    29.94F
BRAINERD       CLOUDY    50  33  52 SE8       29.91F
STAPLES        SUNNY     54  34  47 E6        29.89F
LONG PRAIRIE   CLOUDY    52  39  62 NE13      29.88S
LITTLE FALLS   MOSUNNY   54  36  50 E7        29.88F
LITCHFIELD     MOSUNNY   57  39  51 E16       29.84F
BUFFALO        SUNNY     56  35  45 E13G18    29.86S
MAPLE LAKE     MOSUNNY   57  40  53 E8G17     29.87S
$$
MNZ037-044-045-052-053-252000-
   East Central Minnesota

CITY           SKY/WX    TMP DP  RH WIND       PRES   REMARKS
PRINCETON      MOSUNNY   59  34  38 NE12G18   29.87S
MORA           MOSUNNY   55  28  35 E7        29.90S
CAMBRIDGE      SUNNY     61  37  41 E10G17    29.85S
RUSH CITY      CLOUDY    57  27  31 NE10      29.87F
MOOSE LAKE     CLOUDY    50  30  46 NE9       29.91F
HINCKLEY       CLOUDY    52  34  50 N15       29.89S
CLOQUET        CLOUDY    46  27  46 E10       29.95S
MCGREGOR       CLOUDY    52  28  40 E8G16     29.93F
$$
MNZ071>073-080-081-089-090-097-098-252000-
   Southwest Minnesota

CITY           SKY/WX    TMP DP  RH WIND       PRES   REMARKS
MONTEVIDEO     PTSUNNY   55  45  67 SE15G21   29.84S
GRANITE FALLS  PTSUNNY   56  39  52 E14G21    29.84R
CANBY          CLOUDY    51  41  69 NE10      29.84F
MARSHALL       MOSUNNY   55  39  54 E13       29.81R
REDWOOD FALLS  PTSUNNY   58  39  49 E12G22    29.82R
OLIVIA         PTSUNNY   54  37  54 E14G24    29.82S
PIPESTONE      PTSUNNY   55  43  62 E13G23    29.77R
WORTHINGTON    PTSUNNY   54  37  54 E16G26    29.79R
JACKSON        PTSUNNY   54  37  54 E14G25    29.80R
TRACY          PTSUNNY   57  42  55 E12G21    29.81S
SLAYTON        PTSUNNY   56  39  54 E15G22    29.80S
$$
MNZ065>067-074>077-082>085-091>093-252000-
   South Central Minnesota

CITY           SKY/WX    TMP DP  RH WIND       PRES   REMARKS
MANKATO        PTSUNNY   54  39  58 E18G24    29.82S
NEW ULM        CLOUDY    54  39  58 E15G21    29.81S
ST JAMES       PTSUNNY   55  39  54 E16       29.81S
FAIRMONT       CLOUDY    52  37  58 NE14G20   29.78S
GLENCOE        MOSUNNY   57  41  54 NE13G18   29.82S
FARIBAULT      PTSUNNY   52  39  62 E8G18     29.83S
OWATONNA       PTSUNNY   52  39  62 NE17      29.81S
WASECA         PTSUNNY   52  41  66 NE15G22   29.82S
ALBERT LEA     PTSUNNY   54  43  66 E16G23    29.78R
$$
MNZ078>079-086>088-094>096-252000-
   Southeast Minnesota

CITY           SKY/WX    TMP DP  RH WIND       PRES   REMARKS
ROCHESTER      CLOUDY    50  40  68 E17       29.81S
RED WING       CLOUDY    57  34  41 SE14      29.82S
STANTON        CLOUDY    55  38  52 E13       29.81F
DODGE CENTER   CLOUDY    50  43  76 E17       29.80F
WINONA         CLOUDY    54  36  50 E12       29.82S
AUSTIN         PTSUNNY   52  41  66 E15G21    29.78R
PRESTON        CLOUDY    49  37  63 E13G20    29.80R
$$
ABBREVIATIONS USED IN REMARKS
   TC - TEMPERATURES IN CELSIUS
  WCI - WIND CHILL INDEX
   HX - HEAT INDEX
  VSB - VISIBILITY
$$


USA.gov is the U.S. government's official web portal to all federal, state and local government web resources and services.